| time (UTC) | temp F | wind direction | speed MPH | gust MPH | rain 1hr in | rain 24hr in | rain mn in | humidity % | barometer mb |
| 20260502170518 | 49 | 0 | 0.0 | 0.0 | 0.06 | 0.13 | 0.13 | 87 | 1014.5 |
| 20260502164011 | 49 | 0 | 0.0 | 4.0 | 0.05 | 0.11 | 0.11 | 86 | 1014.4 |
| 20260502163511 | 49 | 0 | 1.0 | 4.0 | 0.05 | 0.11 | 0.11 | 86 | 1014.3 |
| 20260502163040 | 49 | 88 | 0.0 | 3.0 | 0.04 | 0.10 | 0.10 | 85 | 1014.3 |
| 20260502162511 | 49 | 31 | 0.0 | 3.0 | 0.03 | 0.09 | 0.09 | 86 | 1014.3 |
| 20260502162016 | 49 | 0 | 0.0 | 2.0 | 0.02 | 0.08 | 0.08 | 85 | 1014.4 |
| 20260502161539 | 49 | 0 | 0.0 | 0.0 | 0.01 | 0.07 | 0.07 | 85 | 1014.4 |
| 20260502161008 | 49 | 0 | 0.0 | 3.0 | 0.01 | 0.07 | 0.07 | 85 | 1014.5 |
| 20260502160511 | 49 | 0 | 0.0 | 3.0 | 0.01 | 0.07 | 0.07 | 84 | 1014.5 |
| 20260502152013 | 51 | 0 | 0.0 | 4.0 | 0.04 | 0.06 | 0.06 | 84 | 1014.2 |
| 20260502151527 | 51 | 0 | 0.0 | 2.0 | 0.05 | 0.06 | 0.06 | 84 | 1014.2 |
| 20260502151008 | 51 | 0 | 0.0 | 2.0 | 0.05 | 0.06 | 0.06 | 85 | 1014.1 |
| 20260502150511 | 51 | 0 | 0.0 | 0.0 | 0.05 | 0.06 | 0.06 | 85 | 1014.1 |
| 20260502130510 | 54 | 0 | 1.0 | 8.0 | 0.00 | 0.01 | 0.00 | 75 | 1013.6 |
| 20260502123508 | 57 | 0 | 0.0 | 9.0 | 0.00 | 0.01 | 0.00 | 71 | 1013.6 |
| 20260502123041 | 58 | 65 | 1.0 | 6.0 | 0.00 | 0.01 | 0.00 | 71 | 1013.7 |
| 20260502122510 | 58 | 88 | 0.0 | 6.0 | 0.00 | 0.01 | 0.00 | 72 | 1013.6 |
| 20260502122011 | 58 | 0 | 0.0 | 6.0 | 0.00 | 0.01 | 0.00 | 73 | 1013.5 |
| 20260502121528 | 58 | 92 | 1.0 | 7.0 | 0.00 | 0.01 | 0.00 | 73 | 1013.4 |
| 20260502121010 | 58 | 0 | 0.0 | 7.0 | 0.00 | 0.01 | 0.00 | 73 | 1013.6 |
| 20260502120516 | 58 | 0 | 2.0 | 7.0 | 0.00 | 0.01 | 0.00 | 73 | 1013.5 |
| 20260502115511 | 57 | 0 | 0.0 | 2.0 | 0.00 | 0.01 | 0.00 | 74 | 1013.6 |
| 20260502115011 | 57 | 98 | 0.0 | 1.0 | 0.00 | 0.01 | 0.00 | 73 | 1013.6 |
| 20260502114534 | 57 | 0 | 0.0 | 1.0 | 0.00 | 0.01 | 0.00 | 72 | 1013.7 |
| 20260502114008 | 57 | 0 | 0.0 | 1.0 | 0.00 | 0.01 | 0.00 | 73 | 1013.7 |
| 20260502113511 | 57 | 0 | 0.0 | 0.0 | 0.00 | 0.01 | 0.00 | 73 | 1013.6 |
| 20260502113036 | 57 | 0 | 0.0 | 4.0 | 0.00 | 0.01 | 0.00 | 73 | 1013.7 |
| 20260502112511 | 57 | 0 | 0.0 | 4.0 | 0.00 | 0.01 | 0.00 | 72 | 1013.7 |
| 20260502112010 | 58 | 0 | 0.0 | 4.0 | 0.00 | 0.01 | 0.00 | 73 | 1013.7 |
| 20260502111527 | 58 | 0 | 1.0 | 4.0 | 0.00 | 0.01 | 0.00 | 71 | 1013.6 |
| 20260502111011 | 58 | 0 | 0.0 | 1.0 | 0.00 | 0.01 | 0.00 | 71 | 1013.6 |
| 20260502110511 | 58 | 0 | 0.0 | 0.0 | 0.00 | 0.01 | 0.00 | 70 | 1013.6 |
| 20260502110028 | 59 | 0 | 0.0 | 0.0 | 0.00 | 0.01 | 0.00 | 69 | 1013.5 |
| 20260502105518 | 59 | 0 | 0.0 | 1.0 | 0.00 | 0.01 | 0.00 | 69 | 1013.6 |
| 20260502105010 | 59 | 0 | 0.0 | 4.0 | 0.00 | 0.01 | 0.00 | 69 | 1013.6 |
| 20260502104529 | 59 | 0 | 0.0 | 4.0 | 0.00 | 0.01 | 0.00 | 69 | 1013.6 |
| 20260502104010 | 59 | 0 | 0.0 | 4.0 | 0.00 | 0.01 | 0.00 | 70 | 1013.6 |
| 20260502103512 | 59 | 0 | 1.0 | 4.0 | 0.00 | 0.01 | 0.00 | 70 | 1013.5 |
| 20260502103026 | 59 | 0 | 0.0 | 4.0 | 0.00 | 0.01 | 0.00 | 71 | 1013.5 |
| 20260502102509 | 58 | 0 | 0.0 | 4.0 | 0.00 | 0.01 | 0.00 | 70 | 1013.6 |
| 20260502102011 | 58 | 0 | 1.0 | 6.0 | 0.00 | 0.01 | 0.00 | 69 | 1013.5 |
| 20260502101530 | 58 | 0 | 2.0 | 7.0 | 0.00 | 0.01 | 0.00 | 71 | 1013.6 |
| 20260502101010 | 58 | 92 | 2.0 | 7.0 | 0.00 | 0.01 | 0.00 | 71 | 1013.6 |
| 20260502100510 | 58 | 107 | 0.0 | 4.0 | 0.00 | 0.01 | 0.00 | 72 | 1013.6 |
| 20260502091528 | 54 | 0 | 0.0 | 0.0 | 0.00 | 0.01 | 0.00 | 76 | 1013.5 |
| 20260502091012 | 54 | 0 | 0.0 | 0.0 | 0.00 | 0.01 | 0.00 | 77 | 1013.5 |
| 20260502090510 | 54 | 0 | 0.0 | 0.0 | 0.00 | 0.01 | 0.00 | 78 | 1013.4 |
| 20260502071526 | 47 | 0 | 0.0 | 0.0 | 0.00 | 0.01 | 0.00 | 83 | 1013.5 |
| 20260502071009 | 47 | 0 | 0.0 | 0.0 | 0.00 | 0.01 | 0.00 | 84 | 1013.5 |
| 20260502070512 | 47 | 0 | 0.0 | 0.0 | 0.00 | 0.01 | 0.00 | 84 | 1013.6 |
| 20260502070028 | 46 | 0 | 0.0 | 0.0 | 0.00 | 0.01 | 0.00 | 84 | 1013.6 |
| 20260502065510 | 46 | 0 | 0.0 | 0.0 | 0.00 | 0.01 | 0.00 | 84 | 1013.6 |
| 20260502065013 | 46 | 0 | 0.0 | 0.0 | 0.00 | 0.01 | 0.00 | 85 | 1013.6 |
| 20260502064530 | 46 | 0 | 0.0 | 0.0 | 0.00 | 0.01 | 0.00 | 85 | 1013.5 |
| 20260502064012 | 46 | 0 | 0.0 | 0.0 | 0.00 | 0.01 | 0.00 | 85 | 1013.5 |
| 20260502063510 | 45 | 0 | 0.0 | 0.0 | 0.00 | 0.01 | 0.00 | 85 | 1013.5 |
| 20260502063028 | 45 | 0 | 0.0 | 0.0 | 0.00 | 0.01 | 0.00 | 85 | 1013.4 |
| 20260502062507 | 45 | 0 | 0.0 | 0.0 | 0.00 | 0.01 | 0.00 | 86 | 1013.5 |
| 20260502062012 | 45 | 0 | 0.0 | 0.0 | 0.00 | 0.01 | 0.00 | 86 | 1013.3 |
| 20260502061528 | 44 | 0 | 0.0 | 0.0 | 0.00 | 0.01 | 0.00 | 86 | 1013.2 |
| 20260502061007 | 44 | 0 | 0.0 | 0.0 | 0.00 | 0.01 | 0.00 | 86 | 1013.2 |
| 20260502060513 | 44 | 0 | 0.0 | 0.0 | 0.00 | 0.01 | 0.00 | 86 | 1013.2 |
| 20260502060028 | 44 | 0 | 0.0 | 0.0 | 0.00 | 0.01 | 0.00 | 86 | 1013.2 |
| 20260502055508 | 43 | 0 | 0.0 | 0.0 | 0.00 | 0.01 | 0.00 | 87 | 1013.2 |
| 20260502055008 | 43 | 0 | 0.0 | 0.0 | 0.00 | 0.01 | 0.00 | 86 | 1013.3 |
| 20260502054534 | 43 | 0 | 0.0 | 0.0 | 0.00 | 0.01 | 0.00 | 86 | 1013.2 |
| 20260502054008 | 43 | 0 | 0.0 | 0.0 | 0.00 | 0.01 | 0.00 | 86 | 1013.2 |
| 20260502053506 | 43 | 0 | 0.0 | 0.0 | 0.00 | 0.01 | 0.00 | 86 | 1013.3 |
| 20260502053027 | 43 | 0 | 0.0 | 2.0 | 0.00 | 0.01 | 0.00 | 87 | 1013.3 |
| 20260502052515 | 42 | 0 | 0.0 | 2.0 | 0.00 | 0.01 | 0.00 | 87 | 1013.3 |
| 20260502052011 | 42 | 0 | 0.0 | 2.0 | 0.00 | 0.01 | 0.00 | 86 | 1013.3 |
| 20260502051536 | 42 | 0 | 0.0 | 0.0 | 0.00 | 0.01 | 0.00 | 86 | 1013.2 |
| 20260502051008 | 42 | 0 | 0.0 | 2.0 | 0.00 | 0.01 | 0.00 | 85 | 1013.3 |
| 20260502050511 | 42 | 0 | 0.0 | 2.0 | 0.00 | 0.01 | 0.00 | 86 | 1013.2 |
| 20260502050030 | 42 | 0 | 0.0 | 2.0 | 0.00 | 0.01 | 0.00 | 86 | 1013.2 |
| 20260502045515 | 42 | 0 | 0.0 | 0.0 | 0.00 | 0.01 | 0.00 | 85 | 1013.2 |
| 20260502045009 | 42 | 0 | 0.0 | 0.0 | 0.00 | 0.01 | 0.00 | 85 | 1013.1 |
| 20260502044530 | 42 | 0 | 0.0 | 0.0 | 0.00 | 0.01 | 0.00 | 85 | 1013.1 |
| 20260502044012 | 42 | 0 | 0.0 | 0.0 | 0.00 | 0.01 | 0.00 | 85 | 1013.0 |
| 20260502043510 | 42 | 0 | 0.0 | 0.0 | 0.00 | 0.01 | 0.00 | 85 | 1013.0 |
| 20260502043034 | 42 | 0 | 0.0 | 0.0 | 0.00 | 0.01 | 0.00 | 85 | 1013.1 |
| 20260502042513 | 42 | 0 | 0.0 | 0.0 | 0.00 | 0.01 | 0.00 | 85 | 1013.1 |
| 20260502042013 | 42 | 0 | 0.0 | 0.0 | 0.00 | 0.01 | 0.00 | 85 | 1013.0 |
| 20260502041530 | 42 | 0 | 0.0 | 0.0 | 0.00 | 0.01 | 0.00 | 84 | 1013.0 |
| 20260502041011 | 42 | 0 | 0.0 | 0.0 | 0.00 | 0.01 | 0.00 | 84 | 1013.0 |
| 20260502040510 | 42 | 0 | 0.0 | 0.0 | 0.00 | 0.01 | 0.00 | 84 | 1013.1 |
| 20260502040028 | 43 | 0 | 0.0 | 0.0 | 0.00 | 0.01 | 0.00 | 84 | 1013.1 |
| 20260502035513 | 43 | 0 | 0.0 | 0.0 | 0.00 | 0.01 | 0.00 | 83 | 1013.2 |
| 20260502035012 | 43 | 0 | 0.0 | 0.0 | 0.00 | 0.01 | 0.00 | 83 | 1013.2 |
| 20260502034528 | 43 | 0 | 0.0 | 0.0 | 0.00 | 0.01 | 0.00 | 84 | 1013.1 |
| 20260502034013 | 43 | 0 | 0.0 | 0.0 | 0.00 | 0.01 | 0.00 | 84 | 1013.1 |
| 20260502033512 | 43 | 0 | 0.0 | 0.0 | 0.00 | 0.01 | 0.00 | 84 | 1013.3 |
| 20260502033028 | 43 | 0 | 0.0 | 0.0 | 0.00 | 0.01 | 0.00 | 83 | 1013.2 |
| 20260502032511 | 44 | 0 | 0.0 | 0.0 | 0.00 | 0.01 | 0.00 | 83 | 1013.3 |
| 20260502032010 | 44 | 0 | 0.0 | 0.0 | 0.00 | 0.01 | 0.00 | 83 | 1013.3 |
| 20260502031528 | 44 | 0 | 0.0 | 0.0 | 0.00 | 0.01 | 0.00 | 84 | 1013.5 |
| 20260502031011 | 44 | 0 | 0.0 | 0.0 | 0.00 | 0.01 | 0.00 | 84 | 1013.5 |
| 20260502030511 | 44 | 0 | 0.0 | 0.0 | 0.00 | 0.01 | 0.00 | 84 | 1013.6 |
| 20260502030032 | 44 | 0 | 0.0 | 0.0 | 0.00 | 0.01 | 0.00 | 84 | 1013.6 |
| 20260502025519 | 44 | 0 | 0.0 | 0.0 | 0.00 | 0.01 | 0.00 | 84 | 1013.5 |
| 20260502025011 | 44 | 0 | 0.0 | 0.0 | 0.00 | 0.01 | 0.00 | 83 | 1013.5 |
| 20260502024530 | 44 | 0 | 0.0 | 0.0 | 0.00 | 0.01 | 0.00 | 82 | 1013.5 |
| 20260502024012 | 44 | 0 | 0.0 | 0.0 | 0.00 | 0.01 | 0.00 | 81 | 1013.6 |
| 20260502023512 | 44 | 0 | 0.0 | 0.0 | 0.00 | 0.01 | 0.00 | 81 | 1013.7 |
| 20260502023031 | 45 | 0 | 0.0 | 0.0 | 0.00 | 0.01 | 0.00 | 81 | 1013.7 |
| 20260502022510 | 45 | 0 | 0.0 | 0.0 | 0.00 | 0.01 | 0.00 | 82 | 1013.7 |
| 20260502022015 | 45 | 0 | 0.0 | 0.0 | 0.00 | 0.01 | 0.00 | 81 | 1013.7 |
| 20260502021530 | 45 | 0 | 0.0 | 0.0 | 0.00 | 0.01 | 0.00 | 81 | 1013.8 |
| 20260502021009 | 45 | 0 | 0.0 | 0.0 | 0.00 | 0.01 | 0.00 | 82 | 1013.8 |
| 20260502020509 | 45 | 0 | 0.0 | 0.0 | 0.00 | 0.01 | 0.00 | 82 | 1013.8 |
| 20260502020028 | 45 | 0 | 0.0 | 0.0 | 0.00 | 0.01 | 0.00 | 82 | 1013.9 |
| 20260502015510 | 45 | 0 | 0.0 | 0.0 | 0.00 | 0.01 | 0.00 | 82 | 1013.8 |
| 20260502015008 | 45 | 0 | 0.0 | 0.0 | 0.00 | 0.01 | 0.00 | 82 | 1013.9 |
| 20260502014530 | 45 | 0 | 0.0 | 0.0 | 0.00 | 0.01 | 0.00 | 82 | 1013.8 |
| 20260502014014 | 45 | 0 | 0.0 | 0.0 | 0.00 | 0.01 | 0.00 | 82 | 1014.0 |
| 20260502013511 | 45 | 0 | 0.0 | 0.0 | 0.00 | 0.01 | 0.00 | 81 | 1014.0 |
| 20260502013026 | 45 | 0 | 0.0 | 0.0 | 0.00 | 0.01 | 0.00 | 81 | 1014.1 |
| 20260502012507 | 46 | 0 | 0.0 | 0.0 | 0.00 | 0.01 | 0.00 | 81 | 1014.0 |
| 20260502012013 | 46 | 0 | 0.0 | 0.0 | 0.00 | 0.01 | 0.00 | 81 | 1014.0 |
| 20260502011528 | 46 | 0 | 0.0 | 0.0 | 0.00 | 0.01 | 0.00 | 80 | 1014.1 |
| 20260502011007 | 46 | 0 | 0.0 | 0.0 | 0.00 | 0.01 | 0.00 | 79 | 1014.2 |
| 20260502010513 | 46 | 0 | 0.0 | 1.0 | 0.00 | 0.01 | 0.00 | 79 | 1014.2 |
| 20260502010029 | 47 | 0 | 0.0 | 1.0 | 0.00 | 0.01 | 0.00 | 80 | 1014.2 |
| 20260502005509 | 47 | 0 | 0.0 | 1.0 | 0.00 | 0.01 | 0.00 | 80 | 1014.3 |
| 20260502005012 | 47 | 0 | 0.0 | 0.0 | 0.00 | 0.01 | 0.00 | 80 | 1014.3 |
| 20260502004528 | 47 | 0 | 0.0 | 0.0 | 0.00 | 0.01 | 0.00 | 80 | 1014.3 |
| 20260502004019 | 47 | 0 | 0.0 | 0.0 | 0.00 | 0.01 | 0.00 | 78 | 1014.3 |
| 20260502003510 | 47 | 0 | 0.0 | 0.0 | 0.00 | 0.01 | 0.00 | 78 | 1014.3 |
| 20260502003026 | 47 | 0 | 0.0 | 0.0 | 0.00 | 0.01 | 0.00 | 77 | 1014.3 |
| 20260502002511 | 48 | 0 | 0.0 | 0.0 | 0.00 | 0.01 | 0.00 | 76 | 1014.4 |
| 20260502002013 | 48 | 0 | 0.0 | 0.0 | 0.00 | 0.01 | 0.00 | 75 | 1014.3 |
| 20260502001533 | 49 | 0 | 0.0 | 0.0 | 0.00 | 0.01 | 0.00 | 75 | 1014.3 |
| 20260502001015 | 49 | 0 | 0.0 | 0.0 | 0.00 | 0.01 | 0.00 | 74 | 1014.3 |
| 20260502000511 | 49 | 0 | 0.0 | 0.0 | 0.00 | 0.01 | 0.00 | 74 | 1014.4 |
| 20260502000030 | 50 | 0 | 0.0 | 0.0 | 0.00 | 0.01 | 0.00 | 74 | 1014.2 |
| 20260501235511 | 50 | 0 | 0.0 | 0.0 | 0.00 | 0.01 | 0.00 | 73 | 1014.3 |
| 20260501235016 | 51 | 0 | 0.0 | 0.0 | 0.00 | 0.01 | 0.00 | 74 | 1014.3 |
| 20260501234535 | 51 | 0 | 0.0 | 0.0 | 0.00 | 0.01 | 0.00 | 74 | 1014.4 |
| 20260501234011 | 51 | 0 | 0.0 | 0.0 | 0.00 | 0.01 | 0.00 | 75 | 1014.4 |
| 20260501233515 | 51 | 0 | 0.0 | 0.0 | 0.00 | 0.01 | 0.00 | 75 | 1014.4 |
| 20260501233026 | 51 | 0 | 0.0 | 2.0 | 0.00 | 0.01 | 0.00 | 73 | 1014.5 |
| 20260501232516 | 52 | 0 | 0.0 | 3.0 | 0.00 | 0.01 | 0.00 | 73 | 1014.6 |
| 20260501232009 | 52 | 245 | 0.0 | 3.0 | 0.00 | 0.01 | 0.00 | 73 | 1014.6 |
| 20260501231528 | 52 | 0 | 0.0 | 1.0 | 0.00 | 0.01 | 0.00 | 73 | 1014.5 |
| 20260501231010 | 52 | 0 | 0.0 | 0.0 | 0.00 | 0.01 | 0.00 | 72 | 1014.5 |
| 20260501230513 | 53 | 0 | 0.0 | 0.0 | 0.00 | 0.01 | 0.00 | 72 | 1014.5 |
| 20260501230030 | 53 | 0 | 0.0 | 0.0 | 0.00 | 0.01 | 0.00 | 73 | 1014.5 |
| 20260501225509 | 54 | 0 | 0.0 | 0.0 | 0.00 | 0.01 | 0.01 | 73 | 1014.6 |
| 20260501225008 | 54 | 0 | 0.0 | 0.0 | 0.00 | 0.01 | 0.01 | 73 | 1014.4 |
| 20260501224531 | 54 | 0 | 0.0 | 0.0 | 0.00 | 0.01 | 0.01 | 72 | 1014.4 |
| 20260501224009 | 54 | 0 | 0.0 | 0.0 | 0.00 | 0.01 | 0.01 | 72 | 1014.4 |
| 20260501223510 | 54 | 0 | 0.0 | 0.0 | 0.00 | 0.01 | 0.01 | 72 | 1014.5 |
| 20260501223028 | 55 | 0 | 0.0 | 0.0 | 0.00 | 0.01 | 0.01 | 72 | 1014.4 |
| 20260501222507 | 55 | 0 | 0.0 | 0.0 | 0.00 | 0.01 | 0.01 | 71 | 1014.4 |
| 20260501222020 | 55 | 0 | 0.0 | 0.0 | 0.00 | 0.01 | 0.01 | 71 | 1014.5 |
| 20260501221528 | 55 | 0 | 0.0 | 1.0 | 0.00 | 0.01 | 0.01 | 71 | 1014.5 |
| 20260501221010 | 55 | 0 | 0.0 | 1.0 | 0.00 | 0.01 | 0.01 | 71 | 1014.6 |
| 20260501220511 | 56 | 0 | 0.0 | 1.0 | 0.00 | 0.01 | 0.01 | 70 | 1014.5 |
| 20260501220032 | 56 | 0 | 0.0 | 0.0 | 0.00 | 0.01 | 0.01 | 70 | 1014.5 |
| 20260501215510 | 56 | 0 | 0.0 | 0.0 | 0.00 | 0.01 | 0.01 | 70 | 1014.7 |
| 20260501215011 | 56 | 0 | 0.0 | 0.0 | 0.00 | 0.01 | 0.01 | 69 | 1014.8 |
| 20260501214539 | 56 | 0 | 0.0 | 0.0 | 0.00 | 0.01 | 0.01 | 69 | 1014.7 |
| 20260501214014 | 56 | 0 | 0.0 | 0.0 | 0.00 | 0.01 | 0.01 | 68 | 1014.6 |
| 20260501213510 | 56 | 0 | 0.0 | 0.0 | 0.00 | 0.01 | 0.01 | 68 | 1014.7 |
| 20260501213028 | 56 | 0 | 0.0 | 0.0 | 0.00 | 0.01 | 0.01 | 69 | 1014.6 |
| 20260501212507 | 56 | 0 | 0.0 | 0.0 | 0.00 | 0.01 | 0.01 | 68 | 1014.6 |
| 20260501212010 | 56 | 0 | 0.0 | 0.0 | 0.00 | 0.01 | 0.01 | 68 | 1014.7 |
| 20260501211527 | 56 | 0 | 0.0 | 0.0 | 0.00 | 0.01 | 0.01 | 68 | 1014.6 |
| 20260501211010 | 56 | 0 | 0.0 | 0.0 | 0.00 | 0.01 | 0.01 | 68 | 1014.7 |
| 20260501210509 | 57 | 0 | 0.0 | 0.0 | 0.00 | 0.01 | 0.01 | 68 | 1014.7 |
| 20260501210026 | 57 | 0 | 0.0 | 0.0 | 0.00 | 0.01 | 0.01 | 67 | 1014.6 |
| 20260501205510 | 57 | 0 | 0.0 | 0.0 | 0.00 | 0.01 | 0.01 | 68 | 1014.8 |
| 20260501205007 | 57 | 0 | 0.0 | 0.0 | 0.00 | 0.01 | 0.01 | 66 | 1014.9 |
| 20260501204528 | 57 | 0 | 0.0 | 0.0 | 0.00 | 0.01 | 0.01 | 66 | 1014.7 |
| 20260501204009 | 57 | 0 | 0.0 | 0.0 | 0.00 | 0.01 | 0.01 | 66 | 1014.8 |
| 20260501203509 | 57 | 0 | 0.0 | 0.0 | 0.00 | 0.01 | 0.01 | 64 | 1014.8 |
| 20260501203029 | 57 | 0 | 0.0 | 0.0 | 0.00 | 0.01 | 0.01 | 65 | 1014.7 |
| 20260501202510 | 57 | 0 | 0.0 | 0.0 | 0.00 | 0.01 | 0.01 | 66 | 1014.7 |
| 20260501202008 | 57 | 0 | 0.0 | 0.0 | 0.00 | 0.01 | 0.01 | 66 | 1014.7 |
| 20260501201528 | 57 | 0 | 0.0 | 0.0 | 0.00 | 0.01 | 0.01 | 65 | 1014.8 |
| 20260501201014 | 57 | 0 | 0.0 | 0.0 | 0.00 | 0.01 | 0.01 | 66 | 1014.7 |
| 20260501200516 | 57 | 0 | 0.0 | 0.0 | 0.00 | 0.01 | 0.01 | 66 | 1014.7 |
| 20260501200035 | 58 | 0 | 0.0 | 0.0 | 0.00 | 0.01 | 0.01 | 65 | 1014.7 |
| 20260501195509 | 58 | 0 | 0.0 | 0.0 | 0.00 | 0.01 | 0.01 | 65 | 1014.8 |
| 20260501195007 | 58 | 0 | 0.0 | 0.0 | 0.00 | 0.01 | 0.01 | 66 | 1014.7 |
| 20260501194536 | 58 | 0 | 0.0 | 0.0 | 0.00 | 0.01 | 0.01 | 65 | 1014.7 |
| 20260501194010 | 58 | 0 | 0.0 | 0.0 | 0.00 | 0.01 | 0.01 | 65 | 1014.9 |
| 20260501193510 | 58 | 0 | 0.0 | 4.0 | 0.00 | 0.01 | 0.01 | 64 | 1015.0 |
| 20260501193030 | 59 | 0 | 0.0 | 4.0 | 0.00 | 0.01 | 0.01 | 63 | 1014.8 |
| 20260501192508 | 59 | 0 | 0.0 | 3.0 | 0.00 | 0.01 | 0.01 | 61 | 1014.7 |
| 20260501192009 | 59 | 0 | 0.0 | 3.0 | 0.00 | 0.01 | 0.01 | 62 | 1014.9 |
| 20260501191531 | 59 | 0 | 0.0 | 7.0 | 0.00 | 0.01 | 0.01 | 62 | 1015.0 |
| 20260501191018 | 59 | 0 | 0.0 | 7.0 | 0.00 | 0.01 | 0.01 | 59 | 1014.9 |
| 20260501190512 | 60 | 0 | 1.0 | 6.0 | 0.00 | 0.01 | 0.01 | 59 | 1015.0 |
| 20260501190039 | 60 | 0 | 0.0 | 0.0 | 0.00 | 0.01 | 0.01 | 61 | 1015.1 |
| 20260501185512 | 60 | 0 | 0.0 | 0.0 | 0.00 | 0.01 | 0.01 | 61 | 1015.1 |
| 20260501185008 | 60 | 0 | 0.0 | 0.0 | 0.00 | 0.01 | 0.01 | 61 | 1015.1 |
| 20260501184528 | 61 | 0 | 0.0 | 3.0 | 0.00 | 0.01 | 0.01 | 58 | 1015.1 |
| 20260501184011 | 61 | 0 | 0.0 | 3.0 | 0.00 | 0.01 | 0.01 | 56 | 1015.0 |
| 20260501183509 | 61 | 0 | 0.0 | 0.0 | 0.00 | 0.01 | 0.01 | 58 | 1015.2 |
| 20260501183027 | 61 | 0 | 0.0 | 0.0 | 0.00 | 0.01 | 0.01 | 60 | 1015.3 |
| 20260501182508 | 61 | 0 | 0.0 | 0.0 | 0.00 | 0.01 | 0.01 | 58 | 1015.3 |
| 20260501182014 | 61 | 0 | 0.0 | 6.0 | 0.00 | 0.01 | 0.01 | 56 | 1015.2 |
| 20260501181532 | 61 | 0 | 0.0 | 6.0 | 0.00 | 0.01 | 0.01 | 57 | 1015.3 |
| 20260501181010 | 61 | 0 | 0.0 | 3.0 | 0.00 | 0.01 | 0.01 | 58 | 1015.3 |
| 20260501180517 | 61 | 0 | 0.0 | 3.0 | 0.00 | 0.01 | 0.01 | 61 | 1015.3 |
| 20260501180039 | 61 | 0 | 0.0 | 3.0 | 0.00 | 0.01 | 0.01 | 60 | 1015.3 |
| 20260501175509 | 61 | 0 | 0.0 | 3.0 | 0.00 | 0.01 | 0.01 | 60 | 1015.2 |
| 20260501175015 | 61 | 0 | 0.0 | 0.0 | 0.00 | 0.01 | 0.01 | 61 | 1015.2 |
| 20260501174529 | 61 | 0 | 0.0 | 0.0 | 0.00 | 0.01 | 0.01 | 60 | 1015.3 |
| 20260501174011 | 61 | 0 | 0.0 | 0.0 | 0.00 | 0.01 | 0.01 | 60 | 1015.3 |
| 20260501173513 | 61 | 0 | 0.0 | 4.0 | 0.00 | 0.01 | 0.01 | 59 | 1015.3 |